Miscellaneous Local Product
Issued by NWS Hastings, NE

Home | Current Version | Previous Version | Text Only | Print | Product List | Glossary Off
Versions: 1 2 3 4 5 6 7 8 9 10 11 12 13 14 15 16 17 18 19 20 21 22 23 24 25 26 27 28 29 30 31 32 33 34 35 36 37 38 39 40 41 42 43 44 45 46 47 48 49 50

000
AXUS43 KGID 260402
MISGRI

GID CWA HOURLY WEATHER ROUNDUP
NATIONAL WEATHER SERVICE HASTINGS NE
1100 PM CDT SUN JUN 25 2017

NOTE: "FAIR" INDICATES FEW OR NO CLOUDS BELOW 12,000 FEET WITH NO
SIGNIFICANT WEATHER AND/OR OBSTRUCTIONS TO VISIBILITY.

...SOUTH CENTRAL NEBRASKA...

CITY           SKY/WX    TMP DP  RH WIND       PRES   REMARKS
GRAND ISLAND   CLEAR     60  49  66 S7        30.22S
HASTINGS       CLEAR     61  47  59 S7        30.24S
KEARNEY        CLEAR     59  46  63 S6        30.25R
ORD            PTCLDY    60  45  57 S8        30.18S
YORK           PTCLDY    59  50  72 SW3       30.22S
AURORA         CLEAR     61  48  62 SW6       30.22S
LEXINGTON      CLEAR     60  50  68 S5        30.24S
HOLDREGE       CLEAR     59  50  70 S6        30.25R
HEBRON         CLOUDY    61  53  75 S7        30.24S

...NEBRASKA PANHANDLE...

CITY           SKY/WX    TMP DP  RH WIND       PRES   REMARKS
CHADRON        MOCLDY    61  44  53 E6        30.21R
ALLIANCE       CLEAR     63  48  58 S12       30.22R
SCOTTSBLUFF    CLEAR     66  49  54 S8        30.23R
SIDNEY         CLEAR     56  53  90 S8        30.29R

...WESTERN AND NORTH CENTRAL NEBRASKA...

CITY           SKY/WX    TMP DP  RH WIND       PRES   REMARKS
VALENTINE      CLOUDY    70  39  32 E8        30.17R
AINSWORTH      RAIN      61  48  62 S9        30.19R
ONEILL         CLOUDY    63  44  50 S6        30.19R
BROKEN BOW     CLEAR     63  48  58 S9        30.21S
IMPERIAL       CLEAR     55  51  86 CALM      30.27R
NORTH PLATTE   CLEAR     61  53  75 SW6       30.24R
MCCOOK         PTCLDY    59  54  83 SW3       30.26R

...EASTERN NEBRASKA...

CITY           SKY/WX    TMP DP  RH WIND       PRES   REMARKS
NORFOLK        PTCLDY    63  42  46 S10       30.18S
SO SIOUX CITY  CLEAR     57  45  64 E5        30.17S
TEKAMAH        CLEAR     58  39  49 S6        30.18S
COLUMBUS       CLEAR     62  45  53 SE5       30.20R
ALBION         MOCLDY    63  43  48 CALM      30.20R
OMAHA EPPLEY   PTCLDY    64  46  52 S3        30.19F
OFFUTT AFB     CLEAR     56  50  79 CALM      30.19F
MILLARD        CLEAR     65  48  55 SE3       30.20S
LINCOLN        PTCLDY    61  48  62 S9        30.21S
NEBRASKA CITY  CLEAR     60  51  71 S6        30.22F
BEATRICE       CLEAR     61  51  68 S6        30.22F
FALLS CITY     CLEAR     61  52  72 CALM      30.23S

...NORTHERN KANSAS...

CITY           SKY/WX    TMP DP  RH WIND       PRES   REMARKS
GOODLAND       CLOUDY    59  58  96 SE9       30.30R
HILL CITY      PTCLDY    58  57  97 CALM      30.29R
NORTON         PTCLDY    57  52  82 S7        30.26
PHILLIPSBURG   PTCLDY    61  54  77 S6        30.26S
SMITH CENTER   CLEAR     57  48  72 SE8       30.27R
HAYS           MOCLDY    56  54  93 N5        30.28R
RUSSELL        MOCLDY    58  54  86 CALM      30.25R
CONCORDIA      CLEAR     56  53  90 S7        30.25R
SALINA         MOCLDY    64  55  72 E5        30.25R
TOPEKA         CLEAR     57  56  96 CALM      30.24R



USA.gov is the U.S. government's official web portal to all federal, state and local government web resources and services.